RH
6 6 6 6 7 9 8 10 12 12 27 12 14 23 72 66 54 64 44 47 34 37 29 32 34 30 34 57 59 42 44 31 45 41 21 19 21 23 24 38 69 36 42 35
7 7 6 6 6 8 9 8 10 12 12 12 12 18 74 69 52 52 50 48 46 39 34 33 39 36 35 46 71 50 41 40 35 25 30 20 18 24 28 25 56 35 36 25
9 8 8 6 6 6 7 9 8 10 12 12 12 15 71 79 74 49 55 50 56 45 36 36 35 47 40 40 58 70 60 48 53 69 66 50 61 66 32 27 50 71 21 22
10 8 8 7 6 6 6 8 9 9 12 12 12 12 22 91 64 61 74 56 50 43 40 30 47 44 40 42 56 70 90 78 68 64 64 50 42 42 42 36 56 46 17 14
12 10 8 7 6 5 5 7 9 9 9 12 12 11 14 85 70 61 64 58 58 50 45 37 33 48 52 42 45 60 81 100 97 84 66 40 34 57 46 46 33 20 15 12
11 10 10 7 6 5 6 6 7 10 9 10 12 12 12 50 100 74 63 70 65 54 47 42 33 33 62 58 49 57 80 94 98 85 96 99 74 42 45 38 40 16 10 10
13 10 10 10 7 6 6 6 6 8 10 9 12 12 11 28 100 96 83 78 70 63 55 47 41 40 48 85 78 63 62 70 80 89 90 95 71 60 42 32 30 19 10 10
18 14 12 10 10 6 6 6 6 6 9 9 10 14 12 16 100 97 76 79 78 67 61 51 47 41 46 59 79 80 60 66 71 68 89 100 100 68 51 40 27 23 14 9
28 19 15 13 10 9 7 6 6 6 8 8 9 12 13 12 35 100 87 82 65 69 71 62 54 49 46 51 51 71 67 66 72 51 54 70 82 90 84 69 59 53 40 25
30 27 20 15 12 10 12 7 7 6 7 10 9 10 12 11 13 98 100 93 64 70 63 66 64 56 54 49 52 73 61 79 80 56 43 46 45 83 100 90 59 90 66 67
34 31 26 21 16 13 11 12 7 7 7 9 11 10 12 13 12 39 100 100 67 74 78 64 70 60 52 59 52 56 60 50 61 61 52 50 44 38 63 78 84 100 81 68
47 43 30 29 22 24 18 17 12 10 11 9 10 11 10 15 13 18 67 100 100 72 69 72 72 65 71 60 57 60 67 68 67 65 59 51 42 42 40 37 31 46 100 99
49 49 37 32 31 28 24 22 14 14 17 17 10 10 10 13 16 16 40 90 100 87 83 80 66 75 74 72 59 55 63 68 81 92 90 88 82 75 57 51 38 34 31 37
59 58 49 32 46 40 30 34 22 16 18 14 11 12 11 11 16 16 23 48 100 100 100 100 78 61 66 75 72 67 57 61 68 83 84 93 95 100 100 78 70 59 42 41
77 72 61 42 37 37 38 35 56 31 22 13 12 10 12 11 13 16 15 21 48 99 100 100 96 69 52 64 70 74 74 68 68 73 78 80 84 82 83 81 83 87 100 94
93 85 70 51 33 54 38 48 43 51 25 15 15 11 12 11 12 16 21 16 28 67 100 99 100 91 72 55 57 61 67 80 75 73 74 82 86 87 70 68 68 74 72 90
93 96 80 59 44 34 58 53 71 51 30 18 15 23 11 11 11 17 30 27 28 26 78 100 100 100 98 73 55 60 57 72 85 83 82 100 95 84 97 89 78 59 45 49
88 94 90 66 52 38 45 57 53 55 50 26 17 14 17 13 12 19 55 61 28 53 80 100 100 100 100 92 73 58 57 77 73 82 85 90 100 83 82 98 100 100 100 70
82 94 94 70 55 44 34 55 57 62 67 44 21 16 17 13 13 20 58 100 95 59 100 100 100 100 100 100 100 88 59 65 81 82 91 91 95 95 76 75 97 100 100 100
98 96 85 66 56 46 37 38 73 63 59 61 38 17 16 13 13 21 58 98 65 100 100 100 100 100 100 100 100 100 98 73 100 100 100 100 92 89 87 89 99 100 88 66
100 96 79 68 61 43 35 33 56 82 54 52 44 29 18 18 13 16 26 100 80 100 100 100 100 100 100 100 100 100 100 100 100 100 100 100 100 86 83 94 94 100 98 81
100 95 79 64 49 37 32 30 36 87 78 58 45 35 23 15 14 15 24 33 71 96 100 100 91 96 100 100 100 100 100 100 100 86 75 86 77 72 74 83 76 73 66 62
100 82 73 52 37 31 30 30 31 43 92 68 46 34 25 17 16 17 16 29 49 61 100 100 100 100 100 100 100 100 100 99 98 100 76 60 58 62 79 72 82 82 83 68
84 68 48 34 29 27 28 28 28 30 55 90 53 36 25 18 16 17 18 19 26 58 96 100 100 100 100 100 100 100 99 97 100 100 100 84 59 50 57 71 78 93 100 100
75 53 36 28 26 25 25 25 26 25 31 69 66 40 30 20 17 16 17 18 20 26 60 96 100 100 98 100 100 100 100 100 100 100 85 86 80 70 68 63 77 75 98 100
58 37 27 25 25 23 22 22 25 27 25 34 65 57 32 30 20 18 17 17 19 23 32 66 89 100 100 100 100 100 100 98 100 100 100 100 100 100 92 89 82 84 86 90
Wind_Speed
41 44 46 46 47 48 53 57 55 52 45 42 38 33 31 26 20 16 12 9 10 9 11 24 27 29 34 36 36 32 25 23 20 20 21 20 21 20 20 23 20 23 26 29
44 47 47 51 52 52 51 56 60 57 53 48 42 37 35 30 24 19 16 14 10 8 7 19 22 23 29 35 36 38 34 29 27 23 21 20 19 17 19 21 21 23 24 26
45 46 47 52 55 57 55 54 60 60 57 53 48 42 40 34 28 24 23 18 14 10 9 13 20 21 20 27 32 34 38 36 32 29 24 19 15 15 16 18 21 22 26 27
43 46 46 51 59 60 60 56 56 61 62 58 53 48 44 41 34 29 28 24 19 13 13 12 14 19 19 19 25 27 32 33 36 32 28 21 15 14 16 21 22 25 28 31
41 44 47 50 59 62 61 60 57 59 64 62 58 54 50 46 39 34 33 28 24 18 15 16 15 13 17 17 19 22 22 24 28 32 36 36 23 22 23 23 28 28 34 38
37 42 46 51 56 64 65 64 63 61 61 65 63 59 55 50 45 42 39 33 29 25 19 18 20 16 17 17 16 17 18 18 19 24 25 23 32 26 22 24 27 30 32 38
31 36 45 51 52 60 66 69 68 65 62 66 69 64 60 56 53 49 44 38 35 31 27 21 19 20 21 19 19 15 14 15 15 18 22 24 24 30 33 26 26 26 29 29
25 29 40 54 60 61 66 71 71 70 67 67 70 71 68 62 59 54 50 45 41 37 32 27 22 20 23 19 19 18 13 13 12 13 15 18 19 22 29 32 31 26 24 23
30 26 31 47 59 69 66 69 73 72 73 68 72 75 72 68 65 59 55 50 47 45 39 33 29 24 22 19 20 22 16 12 13 12 15 15 16 20 20 23 25 30 29 24
31 33 27 35 53 66 79 74 75 77 74 74 73 76 76 73 68 65 60 55 51 48 43 37 34 28 24 21 19 21 19 15 14 14 15 16 15 15 17 18 21 20 19 21
32 36 34 22 37 56 73 83 79 77 77 78 76 77 79 78 73 70 66 60 55 53 48 42 39 33 27 25 24 24 22 19 17 16 16 15 14 15 15 12 13 14 13 13
32 35 36 22 27 43 59 65 85 78 78 80 82 79 83 82 79 74 71 66 60 57 53 49 45 40 35 31 28 25 24 23 21 18 16 17 16 16 14 12 11 9 8 11
30 32 33 26 18 33 49 63 78 90 87 87 89 85 84 86 84 79 75 71 65 60 55 53 51 47 42 39 34 30 26 26 23 21 18 14 13 13 15 15 13 12 9 8
29 31 30 31 17 22 40 54 66 83 94 97 90 89 86 89 88 84 79 75 70 65 62 58 58 52 49 45 40 37 33 30 27 24 22 20 16 15 14 11 11 12 13 13
29 29 26 29 18 17 30 48 56 72 93 97 93 93 90 90 90 88 83 80 76 72 69 64 62 58 53 50 48 44 40 37 34 31 28 24 20 18 16 14 13 13 14 14
29 27 26 25 24 15 22 35 53 63 81 99 97 96 94 90 93 90 88 82 79 76 73 69 68 61 61 55 53 52 48 45 42 40 37 32 30 28 26 24 21 20 17 14
27 25 25 25 24 20 18 26 41 57 71 91 101 93 96 90 93 92 89 86 82 78 75 74 70 67 65 60 58 56 53 51 49 48 45 39 35 38 35 33 29 25 23 20
24 25 26 25 26 24 17 25 36 51 68 85 99 103 94 92 92 91 87 86 85 78 76 74 72 70 69 69 64 60 56 55 56 54 50 46 45 42 41 36 33 31 32 32
24 25 26 27 25 26 23 24 30 43 62 78 97 103 98 96 93 95 92 86 83 82 81 76 73 74 74 71 67 67 59 60 58 58 55 55 52 49 48 44 37 36 40 38
25 24 27 28 31 30 27 26 30 36 50 70 90 105 101 101 96 96 98 96 90 79 80 79 75 72 76 74 63 70 67 64 61 63 58 55 58 57 56 53 47 45 46 44
24 26 30 34 36 36 35 27 34 37 43 61 86 100 105 100 99 98 102 98 93 82 83 83 79 78 70 71 75 75 66 63 67 74 70 67 64 63 61 60 56 55 52 52
27 32 35 38 38 41 38 31 34 42 45 54 74 96 104 104 102 97 100 104 99 96 89 83 85 81 78 70 68 71 79 76 74 78 81 74 71 69 65 62 63 64 63 61
31 35 40 40 44 41 35 32 36 43 48 52 66 90 103 105 104 100 97 101 103 100 96 92 82 72 76 82 75 74 70 76 83 81 81 82 78 75 75 71 68 68 67 66
35 38 40 45 42 36 35 34 37 43 52 53 59 79 99 106 105 105 99 97 103 103 104 91 97 92 87 83 88 89 87 82 80 86 90 87 82 80 78 79 74 71 73 73
36 40 45 42 36 36 34 34 34 41 47 55 58 67 90 104 106 106 103 98 98 101 102 104 92 91 96 90 92 93 90 93 95 90 90 89 87 85 85 83 79 75 77 79
34 41 38 34 33 31 31 32 31 38 46 52 58 62 75 96 105 107 105 103 100 100 102 103 106 102 90 92 98 91 95 95 92 91 90 89 86 85 86 83 84 82 82 84
Wind_Direction
237 237 236 234 232 230 225 221 218 217 215 213 214 209 204 207 198 182 143 125 89 63 67 83 73 70 75 79 76 75 84 91 105 109 108 106 101 97 84 90 85 99 118 128
244 241 237 230 228 228 227 222 220 216 216 214 213 208 209 205 204 187 167 165 138 100 105 98 84 76 73 78 79 75 79 83 88 96 100 94 98 99 91 77 75 96 117 123
247 243 236 227 224 226 225 224 221 218 215 215 212 208 210 205 208 195 173 175 168 147 149 125 108 92 75 78 76 75 72 77 82 88 91 99 104 111 86 78 82 96 108 119
246 241 235 228 224 223 223 222 222 219 217 212 213 209 209 208 205 198 190 179 184 170 146 164 130 114 100 86 83 79 77 72 73 79 81 91 106 102 91 88 89 92 108 119
250 245 240 231 223 221 222 220 221 220 218 214 212 209 209 208 203 197 198 185 193 192 169 168 167 144 121 110 98 86 82 73 69 73 75 74 98 97 100 93 96 101 110 120
258 241 239 234 224 220 217 217 217 218 216 215 212 211 209 206 204 197 204 195 200 195 192 180 181 171 150 134 123 99 88 84 81 75 78 72 73 85 94 97 102 114 119 126
275 254 235 232 230 223 219 215 215 216 214 213 212 210 211 205 204 201 202 198 199 199 194 198 180 185 170 150 146 128 106 95 94 86 80 82 83 79 83 100 107 116 125 131
299 270 247 231 224 225 221 216 213 213 215 212 211 210 209 206 203 204 202 203 204 198 199 197 190 186 190 184 176 162 148 126 112 102 97 97 98 99 89 87 96 111 122 134
323 309 261 242 230 219 220 218 212 211 213 214 209 210 209 208 204 205 203 203 207 197 202 198 199 192 196 199 198 186 182 167 148 129 120 116 106 104 102 96 93 93 93 100
326 327 304 251 233 223 214 213 211 209 208 213 212 210 209 209 206 205 203 202 203 203 200 196 205 202 192 198 194 193 194 183 173 151 134 127 122 113 107 116 116 101 90 90
326 332 333 275 239 227 216 211 209 208 207 210 212 210 209 209 208 205 206 202 200 205 199 198 204 207 197 202 197 187 189 184 177 166 153 144 136 124 126 124 125 131 129 113
329 335 340 314 251 224 217 210 210 207 208 210 211 211 208 209 209 207 208 206 202 205 213 205 200 207 203 206 205 199 191 186 178 178 172 160 152 147 144 139 138 147 138 148
325 334 341 335 275 230 218 213 209 206 203 210 210 210 208 207 209 208 208 207 205 205 210 208 201 203 208 207 208 207 208 206 199 190 191 187 175 166 164 165 162 154 159 176
319 328 337 345 296 233 217 212 208 207 206 208 209 208 207 207 208 209 208 208 207 207 208 209 203 205 210 211 209 210 208 214 215 210 209 204 201 202 205 193 197 192 189 178
311 319 329 337 322 253 222 215 211 208 207 208 208 206 209 206 207 209 210 209 208 208 208 206 208 205 209 212 211 212 215 215 219 222 215 213 215 217 218 218 227 229 220 216
304 309 321 332 341 278 239 220 217 213 210 206 207 207 209 206 207 208 210 209 210 208 211 210 210 211 210 213 214 213 213 221 221 221 222 227 236 234 222 221 224 236 242 239
295 302 312 322 331 324 262 235 219 219 212 207 206 207 208 207 208 208 210 211 211 210 211 212 211 214 217 213 218 219 219 221 226 226 225 231 239 236 237 240 233 227 226 236
288 294 301 313 319 324 279 249 227 217 214 207 206 207 207 208 207 210 208 213 213 211 210 212 210 214 216 217 216 219 222 224 227 230 231 231 234 235 236 240 248 248 249 241
288 287 294 303 307 309 305 258 239 223 216 210 205 205 206 207 207 207 207 209 212 213 212 211 212 217 218 220 222 222 225 227 229 232 236 237 236 236 231 229 238 241 246 249
281 281 288 297 305 300 298 267 242 229 220 215 208 205 205 206 207 207 209 210 211 212 213 210 213 214 222 219 219 228 227 230 237 234 235 238 237 236 230 233 233 237 244 244
274 279 291 299 302 298 293 266 240 232 223 218 211 208 205 207 208 208 211 211 210 208 217 217 216 216 217 223 223 226 226 231 236 239 235 235 236 236 233 236 235 239 244 244
278 284 295 299 297 294 286 266 237 229 227 219 215 210 208 208 208 209 210 212 214 212 216 218 221 218 220 218 223 228 226 225 229 235 236 233 235 237 239 242 242 244 246 248
286 291 298 299 294 287 274 258 240 227 225 223 216 213 211 209 209 210 211 214 214 215 215 215 214 218 220 225 222 223 227 233 231 233 235 236 238 240 241 243 245 249 251 249
295 299 301 297 291 280 268 260 243 233 224 223 219 216 214 211 210 212 212 214 216 217 214 217 220 220 218 223 225 225 226 227 230 236 239 241 242 243 245 244 247 251 252 252
299 301 301 297 285 278 271 262 246 235 229 224 224 218 217 215 213 214 215 215 218 219 219 218 218 221 223 221 228 229 230 234 237 240 243 244 246 247 246 245 249 252 253 253
300 305 302 292 281 280 268 260 241 234 228 226 224 223 220 219 218 216 218 218 218 220 222 222 224 221 224 230 226 231 237 235 237 240 242 244 245 247 249 248 249 251 252 253